Time,TemperatureF,DewpointF,PressureIn,WindDirection,WindDirectionDegrees,WindSpeedMPH,WindSpeedGustMPH,Humidity,HourlyPrecipIn,Conditions,Clouds,dailyrainin,SoftwareType,DateUTC
2013-02-18 00:02:00,9.0,1.0,29.66,West,270,11.0,27.0,69,0.00,,,0.00,,2013-02-18 05:02:00,
2013-02-18 00:11:00,9.0,1.0,29.66,West,270,11.0,27.0,69,0.00,,,0.00,,2013-02-18 05:11:00,
2013-02-18 00:21:00,9.0,1.0,29.65,South,189,10.0,30.0,69,0.00,,,0.00,,2013-02-18 05:21:00,
2013-02-18 00:32:00,9.0,1.0,29.66,SW,224,12.0,27.0,69,0.00,,,0.00,,2013-02-18 05:32:00,
2013-02-18 00:42:00,9.0,1.0,29.66,SW,224,12.0,27.0,69,0.00,,,0.00,,2013-02-18 05:42:00,
2013-02-18 00:52:00,9.0,1.0,29.66,NW,307,11.0,21.0,69,0.00,,,0.00,,2013-02-18 05:52:00,
2013-02-18 01:02:00,9.0,1.0,29.67,WNW,294,11.0,26.0,69,0.00,,,0.00,,2013-02-18 06:02:00,
2013-02-18 01:11:00,9.0,1.0,29.67,WNW,294,11.0,26.0,69,0.00,,,0.00,,2013-02-18 06:11:00,
2013-02-18 01:22:00,9.0,1.0,29.67,WNW,296,9.0,28.0,70,0.00,,,0.00,,2013-02-18 06:22:00,
2013-02-18 01:32:00,8.0,0.0,29.68,NW,320,10.0,20.0,70,0.00,,,0.00,,2013-02-18 06:32:00,
2013-02-18 01:42:00,8.0,0.0,29.68,NW,320,10.0,20.0,70,0.00,,,0.00,,2013-02-18 06:42:00,
2013-02-18 01:52:00,8.0,0.0,29.69,North,354,8.0,21.0,70,0.00,,,0.00,,2013-02-18 06:52:00,
2013-02-18 02:02:00,8.0,1.0,29.69,West,260,12.0,24.0,71,0.00,,,0.00,,2013-02-18 07:02:00,
2013-02-18 02:11:00,8.0,1.0,29.69,West,260,12.0,24.0,71,0.00,,,0.00,,2013-02-18 07:11:00,
2013-02-18 02:22:00,8.0,1.0,29.70,WNW,291,11.0,24.0,71,0.00,,,0.00,,2013-02-18 07:22:00,
2013-02-18 02:32:00,7.0,0.0,29.83,SW,232,12.0,25.0,71,0.00,,,0.00,,2013-02-18 07:32:00,
2013-02-18 02:42:00,7.0,0.0,29.83,SW,232,12.0,25.0,71,0.00,,,0.00,,2013-02-18 07:42:00,
2013-02-18 02:52:00,8.0,1.0,29.71,North,2,10.0,22.0,71,0.00,,,0.00,,2013-02-18 07:52:00,
2013-02-18 03:01:00,8.0,0.0,29.71,North,7,11.0,24.0,70,0.00,,,0.00,,2013-02-18 08:01:00,
2013-02-18 03:11:00,8.0,0.0,29.71,North,7,11.0,24.0,70,0.00,,,0.00,,2013-02-18 08:11:00,
2013-02-18 03:21:00,8.0,0.0,29.72,WNW,294,11.0,26.0,69,0.00,,,0.00,,2013-02-18 08:21:00,
2013-02-18 03:32:00,8.0,0.0,29.73,SW,221,12.0,24.0,70,0.00,,,0.00,,2013-02-18 08:32:00,
2013-02-18 03:42:00,8.0,0.0,29.73,SW,221,12.0,24.0,70,0.00,,,0.00,,2013-02-18 08:42:00,
2013-02-18 03:52:00,8.0,0.0,29.74,WNW,298,13.0,31.0,69,0.00,,,0.00,,2013-02-18 08:52:00,
2013-02-18 04:03:00,8.0,0.0,29.75,WSW,252,13.0,26.0,69,0.00,,,0.00,,2013-02-18 09:03:00,
2013-02-18 04:11:00,8.0,0.0,29.75,WSW,252,13.0,26.0,69,0.00,,,0.00,,2013-02-18 09:11:00,
2013-02-18 04:22:00,8.0,0.0,29.75,NNW,327,11.0,22.0,69,0.00,,,0.00,,2013-02-18 09:22:00,
2013-02-18 04:32:00,8.0,0.0,29.77,NW,305,11.0,23.0,69,0.00,,,0.00,,2013-02-18 09:32:00,
2013-02-18 04:42:00,8.0,0.0,29.77,NW,305,11.0,23.0,69,0.00,,,0.00,,2013-02-18 09:42:00,
2013-02-18 04:52:00,8.0,0.0,29.78,WSW,241,10.0,29.0,70,0.00,,,0.00,,2013-02-18 09:52:00,
2013-02-18 05:01:00,7.0,-1.0,29.92,WNW,298,12.0,22.0,69,0.00,,,0.00,,2013-02-18 10:01:00,
2013-02-18 05:11:00,7.0,-1.0,29.92,WNW,298,12.0,22.0,69,0.00,,,0.00,,2013-02-18 10:11:00,
2013-02-18 05:22:00,8.0,0.0,29.79,ENE,75,10.0,20.0,70,0.00,,,0.00,,2013-02-18 10:22:00,
2013-02-18 05:32:00,7.0,-1.0,29.79,WSW,239,13.0,22.0,70,0.00,,,0.00,,2013-02-18 10:32:00,
2013-02-18 05:42:00,7.0,-1.0,29.79,WSW,239,13.0,22.0,70,0.00,,,0.00,,2013-02-18 10:42:00,
2013-02-18 05:53:00,7.0,-1.0,29.81,NNE,17,10.0,21.0,70,0.00,,,0.00,,2013-02-18 10:53:00,
2013-02-18 06:02:00,7.0,-1.0,29.83,NE,38,8.0,18.0,70,0.00,,,0.00,,2013-02-18 11:02:00,
2013-02-18 06:12:00,7.0,-1.0,29.83,NE,38,8.0,18.0,70,0.00,,,0.00,,2013-02-18 11:12:00,
2013-02-18 06:22:00,7.0,-1.0,29.83,WSW,244,9.0,18.0,70,0.00,,,0.00,,2013-02-18 11:22:00,
2013-02-18 06:32:00,7.0,-1.0,29.84,WSW,258,10.0,18.0,70,0.00,,,0.00,,2013-02-18 11:32:00,
2013-02-18 06:42:00,7.0,-1.0,29.84,WSW,258,10.0,18.0,70,0.00,,,0.00,,2013-02-18 11:42:00,
2013-02-18 06:53:00,7.0,-1.0,29.84,North,355,7.0,15.0,70,0.00,,,0.00,,2013-02-18 11:53:00,
2013-02-18 07:02:00,7.0,-1.0,29.85,WSW,249,9.0,18.0,70,0.00,,,0.00,,2013-02-18 12:02:00,
2013-02-18 07:12:00,7.0,-1.0,29.85,WSW,249,9.0,18.0,70,0.00,,,0.00,,2013-02-18 12:12:00,
2013-02-18 07:22:00,7.0,-1.0,30.00,NNE,17,6.0,15.0,70,0.00,,,0.00,,2013-02-18 12:22:00,
2013-02-18 07:32:00,7.0,-1.0,30.03,West,277,7.0,16.0,70,0.00,,,0.00,,2013-02-18 12:32:00,
2013-02-18 07:42:00,7.0,-1.0,30.03,West,277,7.0,16.0,70,0.00,,,0.00,,2013-02-18 12:42:00,
2013-02-18 07:54:00,7.0,-1.0,29.90,North,359,2.0,13.0,69,0.00,,,0.00,,2013-02-18 12:54:00,
2013-02-18 08:03:00,8.0,0.0,29.90,NW,319,7.0,17.0,69,0.00,,,0.00,,2013-02-18 13:03:00,
2013-02-18 08:12:00,8.0,0.0,29.90,NW,319,7.0,17.0,69,0.00,,,0.00,,2013-02-18 13:12:00,
2013-02-18 08:22:00,8.0,-1.0,29.90,NW,307,7.0,15.0,67,0.00,,,0.00,,2013-02-18 13:22:00,
2013-02-18 08:32:00,8.0,-1.0,29.91,NNW,329,5.0,15.0,66,0.00,,,0.00,,2013-02-18 13:32:00,
2013-02-18 08:42:00,8.0,-1.0,29.91,NNW,329,5.0,15.0,66,0.00,,,0.00,,2013-02-18 13:42:00,
2013-02-18 08:53:00,9.0,0.0,29.92,West,265,8.0,17.0,65,0.00,,,0.00,,2013-02-18 13:53:00,
2013-02-18 09:02:00,9.0,-1.0,29.93,WSW,251,8.0,13.0,64,0.00,,,0.00,,2013-02-18 14:02:00,
2013-02-18 09:11:00,9.0,-1.0,29.93,WSW,251,8.0,13.0,64,0.00,,,0.00,,2013-02-18 14:11:00,
2013-02-18 09:22:00,10.0,0.0,29.92,WSW,246,6.0,14.0,63,0.00,,,0.00,,2013-02-18 14:22:00,
2013-02-18 09:33:00,11.0,0.0,29.93,SSW,201,3.0,16.0,61,0.00,,,0.00,,2013-02-18 14:33:00,
2013-02-18 09:42:00,11.0,0.0,29.93,SSW,201,3.0,16.0,61,0.00,,,0.00,,2013-02-18 14:42:00,
2013-02-18 09:54:00,13.0,-1.0,29.92,NNE,22,7.0,20.0,53,0.00,,,0.00,,2013-02-18 14:54:00,
2013-02-18 10:02:00,13.0,-4.0,30.05,West,260,8.0,27.0,46,0.00,,,0.00,,2013-02-18 15:02:00,
2013-02-18 10:12:00,13.0,-4.0,30.05,West,260,8.0,27.0,46,0.00,,,0.00,,2013-02-18 15:12:00,
2013-02-18 10:22:00,15.0,-3.0,29.91,WSW,238,12.0,25.0,44,0.00,,,0.00,,2013-02-18 15:22:00,
2013-02-18 10:32:00,15.0,-3.0,29.91,SSW,195,13.0,24.0,43,0.00,,,0.00,,2013-02-18 15:32:00,
2013-02-18 10:42:00,15.0,-3.0,29.91,SSW,195,13.0,24.0,43,0.00,,,0.00,,2013-02-18 15:42:00,
2013-02-18 10:53:00,15.0,-3.0,29.91,South,185,12.0,28.0,43,0.00,,,0.00,,2013-02-18 15:53:00,
2013-02-18 11:03:00,16.0,-3.0,29.91,SW,228,12.0,27.0,41,0.00,,,0.00,,2013-02-18 16:03:00,
2013-02-18 11:12:00,16.0,-3.0,29.91,SW,228,12.0,27.0,41,0.00,,,0.00,,2013-02-18 16:12:00,
2013-02-18 11:22:00,16.0,-4.0,29.92,NW,308,11.0,26.0,40,0.00,,,0.00,,2013-02-18 16:22:00,
2013-02-18 11:32:00,17.0,-3.0,29.93,SW,228,9.0,21.0,41,0.00,,,0.00,,2013-02-18 16:32:00,
2013-02-18 11:42:00,17.0,-3.0,29.93,SW,228,9.0,21.0,41,0.00,,,0.00,,2013-02-18 16:42:00,
2013-02-18 11:53:00,17.0,-3.0,29.93,WSW,249,9.0,20.0,40,0.00,,,0.00,,2013-02-18 16:53:00,
2013-02-18 12:04:00,18.0,-2.0,29.92,NW,315,9.0,20.0,40,0.00,,,0.00,,2013-02-18 17:04:00,
2013-02-18 12:12:00,18.0,-2.0,29.92,NW,315,9.0,20.0,40,0.00,,,0.00,,2013-02-18 17:12:00,
2013-02-18 12:22:00,18.0,-3.0,29.93,WNW,298,11.0,26.0,38,0.00,,,0.00,,2013-02-18 17:22:00,
2013-02-18 12:32:00,19.0,-2.0,29.94,WSW,238,10.0,22.0,38,0.00,,,0.00,,2013-02-18 17:32:00,
2013-02-18 12:42:00,19.0,-2.0,29.94,WSW,238,10.0,22.0,38,0.00,,,0.00,,2013-02-18 17:42:00,
2013-02-18 12:53:00,19.0,-2.0,30.08,SW,230,11.0,21.0,38,0.00,,,0.00,,2013-02-18 17:53:00,
2013-02-18 13:02:00,20.0,-1.0,29.94,West,270,9.0,22.0,39,0.00,,,0.00,,2013-02-18 18:02:00,
2013-02-18 13:12:00,20.0,-1.0,29.94,West,270,9.0,22.0,39,0.00,,,0.00,,2013-02-18 18:12:00,
2013-02-18 13:23:00,20.0,-1.0,29.93,West,265,9.0,27.0,39,0.00,,,0.00,,2013-02-18 18:23:00,
2013-02-18 13:33:00,21.0,-1.0,29.94,WNW,298,11.0,25.0,37,0.00,,,0.00,,2013-02-18 18:33:00,
2013-02-18 13:42:00,21.0,-1.0,29.94,WNW,298,11.0,25.0,37,0.00,,,0.00,,2013-02-18 18:42:00,
2013-02-18 13:53:00,21.0,-1.0,29.95,WSW,254,10.0,21.0,37,0.00,,,0.00,,2013-02-18 18:53:00,
2013-02-18 14:03:00,21.0,-2.0,29.95,NE,49,10.0,27.0,35,0.00,,,0.00,,2013-02-18 19:03:00,
2013-02-18 14:13:00,21.0,-2.0,29.95,NE,49,10.0,27.0,35,0.00,,,0.00,,2013-02-18 19:13:00,
2013-02-18 14:22:00,21.0,-2.0,29.96,NW,313,11.0,23.0,35,0.00,,,0.00,,2013-02-18 19:22:00,
2013-02-18 14:33:00,21.0,-3.0,29.96,West,266,13.0,23.0,34,0.00,,,0.00,,2013-02-18 19:33:00,
2013-02-18 14:43:00,21.0,-3.0,29.96,West,266,13.0,23.0,34,0.00,,,0.00,,2013-02-18 19:43:00,
2013-02-18 14:53:00,22.0,-2.0,29.96,WSW,255,9.0,21.0,34,0.00,,,0.00,,2013-02-18 19:53:00,
2013-02-18 15:02:00,22.0,-2.0,30.11,NW,310,6.0,21.0,34,0.00,,,0.00,,2013-02-18 20:02:00,
2013-02-18 15:12:00,22.0,-2.0,30.11,NW,310,6.0,21.0,34,0.00,,,0.00,,2013-02-18 20:12:00,
2013-02-18 15:23:00,23.0,-2.0,29.98,WSW,249,9.0,18.0,32,0.00,,,0.00,,2013-02-18 20:23:00,
2013-02-18 15:33:00,23.0,-3.0,29.98,NNW,332,10.0,19.0,31,0.00,,,0.00,,2013-02-18 20:33:00,
2013-02-18 15:42:00,23.0,-3.0,29.98,NNW,332,10.0,19.0,31,0.00,,,0.00,,2013-02-18 20:42:00,
2013-02-18 15:53:00,23.0,-3.0,29.99,WNW,292,7.0,22.0,31,0.00,,,0.00,,2013-02-18 20:53:00,
2013-02-18 16:03:00,23.0,-3.0,30.00,WSW,255,8.0,21.0,31,0.00,,,0.00,,2013-02-18 21:03:00,
2013-02-18 16:12:00,23.0,-3.0,30.00,WSW,255,8.0,21.0,31,0.00,,,0.00,,2013-02-18 21:12:00,
2013-02-18 16:22:00,24.0,-3.0,30.01,WSW,256,11.0,27.0,30,0.00,,,0.00,,2013-02-18 21:22:00,
2013-02-18 16:33:00,23.0,-4.0,30.01,SW,234,8.0,16.0,30,0.00,,,0.00,,2013-02-18 21:33:00,
2013-02-18 16:43:00,23.0,-4.0,30.01,SW,234,8.0,16.0,30,0.00,,,0.00,,2013-02-18 21:43:00,
2013-02-18 16:53:00,23.0,-4.0,30.01,SW,216,8.0,19.0,30,0.00,,,0.00,,2013-02-18 21:53:00,
2013-02-18 17:13:00,22.0,-3.0,30.02,ESE,103,7.0,16.0,32,0.00,,,0.00,,2013-02-18 22:13:00,
2013-02-18 17:23:00,22.0,-3.0,30.02,ESE,103,7.0,16.0,32,0.00,,,0.00,,2013-02-18 22:23:00,
2013-02-18 17:33:00,22.0,-3.0,30.03,West,277,6.0,14.0,33,0.00,,,0.00,,2013-02-18 22:33:00,
2013-02-18 17:43:00,22.0,-3.0,30.03,West,277,6.0,14.0,33,0.00,,,0.00,,2013-02-18 22:43:00,
2013-02-18 17:54:00,21.0,-3.0,30.17,West,266,5.0,12.0,34,0.00,,,0.00,,2013-02-18 22:54:00,
2013-02-18 18:12:00,21.0,-3.0,30.04,NNW,332,7.0,20.0,34,0.00,,,0.00,,2013-02-18 23:12:00,
2013-02-18 18:23:00,21.0,-2.0,30.04,WSW,243,6.0,13.0,35,0.00,,,0.00,,2013-02-18 23:23:00,
2013-02-18 18:33:00,21.0,-2.0,30.04,NW,311,3.0,17.0,36,0.00,,,0.00,,2013-02-18 23:33:00,
2013-02-18 18:43:00,21.0,-2.0,30.04,NW,311,3.0,17.0,36,0.00,,,0.00,,2013-02-18 23:43:00,
2013-02-18 18:53:00,20.0,-1.0,30.06,NW,322,3.0,6.0,38,0.00,,,0.00,,2013-02-18 23:53:00,
2013-02-18 19:03:00,19.0,-1.0,30.06,NW,321,3.0,7.0,40,0.00,,,0.00,,2013-02-19 00:03:00,
2013-02-18 19:12:00,19.0,-1.0,30.06,NW,321,3.0,7.0,40,0.00,,,0.00,,2013-02-19 00:12:00,
2013-02-18 19:23:00,19.0,-2.0,30.06,SSW,199,5.0,9.0,39,0.00,,,0.00,,2013-02-19 00:23:00,
2013-02-18 19:34:00,20.0,-1.0,30.06,WSW,239,4.0,13.0,39,0.00,,,0.00,,2013-02-19 00:34:00,
2013-02-18 19:43:00,20.0,-1.0,30.06,WSW,239,4.0,13.0,39,0.00,,,0.00,,2013-02-19 00:43:00,
2013-02-18 19:55:00,19.0,-1.0,30.06,NNW,328,4.0,14.0,40,0.00,,,0.00,,2013-02-19 00:55:00,
2013-02-18 20:03:00,19.0,-1.0,30.05,NNW,339,6.0,13.0,40,0.00,,,0.00,,2013-02-19 01:03:00,
2013-02-18 20:14:00,19.0,-1.0,30.05,NNW,339,6.0,13.0,40,0.00,,,0.00,,2013-02-19 01:14:00,
2013-02-18 20:24:00,19.0,-2.0,30.19,West,281,6.0,15.0,39,0.00,,,0.00,,2013-02-19 01:24:00,
2013-02-18 20:34:00,19.0,-2.0,30.05,West,276,6.0,15.0,39,0.00,,,0.00,,2013-02-19 01:34:00,
2013-02-18 20:44:00,19.0,-2.0,30.05,West,276,6.0,15.0,39,0.00,,,0.00,,2013-02-19 01:44:00,
2013-02-18 20:56:00,19.0,-2.0,30.05,SW,228,6.0,16.0,39,0.00,,,0.00,,2013-02-19 01:56:00,
2013-02-18 21:03:00,19.0,-1.0,30.05,SW,228,6.0,12.0,40,0.00,,,0.00,,2013-02-19 02:03:00,
2013-02-18 21:14:00,19.0,-1.0,30.05,SW,228,6.0,12.0,40,0.00,,,0.00,,2013-02-19 02:14:00,
2013-02-18 21:23:00,19.0,-2.0,30.06,West,264,6.0,14.0,38,0.00,,,0.00,,2013-02-19 02:23:00,
2013-02-18 21:34:00,19.0,-2.0,30.07,WSW,253,6.0,13.0,38,0.00,,,0.00,,2013-02-19 02:34:00,
2013-02-18 21:43:00,19.0,-2.0,30.07,WSW,253,6.0,13.0,38,0.00,,,0.00,,2013-02-19 02:43:00,
2013-02-18 21:55:00,19.0,-2.0,30.07,SW,230,5.0,10.0,38,0.00,,,0.00,,2013-02-19 02:55:00,
2013-02-18 22:06:00,19.0,-2.0,30.07,SW,235,4.0,9.0,39,0.00,,,0.00,,2013-02-19 03:06:00,
2013-02-18 22:15:00,19.0,-2.0,30.07,SW,235,4.0,9.0,39,0.00,,,0.00,,2013-02-19 03:15:00,
2013-02-18 22:24:00,19.0,-2.0,30.07,South,191,3.0,9.0,38,0.00,,,0.00,,2013-02-19 03:24:00,
2013-02-18 22:34:00,19.0,-2.0,30.07,West,259,4.0,16.0,38,0.00,,,0.00,,2013-02-19 03:34:00,
2013-02-18 22:44:00,19.0,-2.0,30.07,West,259,4.0,16.0,38,0.00,,,0.00,,2013-02-19 03:44:00,
2013-02-18 22:55:00,19.0,-2.0,30.08,West,270,3.0,8.0,38,0.00,,,0.00,,2013-02-19 03:55:00,
2013-02-18 23:03:00,18.0,-3.0,30.21,South,175,4.0,12.0,39,0.00,,,0.00,,2013-02-19 04:03:00,
2013-02-18 23:14:00,18.0,-3.0,30.21,South,175,4.0,12.0,39,0.00,,,0.00,,2013-02-19 04:14:00,
2013-02-18 23:24:00,19.0,-2.0,30.07,NW,319,4.0,11.0,38,0.00,,,0.00,,2013-02-19 04:24:00,
2013-02-18 23:33:00,19.0,-2.0,30.07,WSW,244,5.0,12.0,39,0.00,,,0.00,,2013-02-19 04:33:00,
2013-02-18 23:44:00,19.0,-2.0,30.07,WSW,244,5.0,12.0,39,0.00,,,0.00,,2013-02-19 04:44:00,
2013-02-18 23:55:00,19.0,-2.0,30.08,WSW,244,3.0,10.0,38,0.00,,,0.00,,2013-02-19 04:55:00,